Wetbulb
44.72 46.10 47.86 49.17 53.49 59.49 60.12 60.15 61.09 60.21 59.38 59.59 59.78 60.23 59.97 59.48 59.12 58.51 57.47 56.90 57.18 56.82
42.07 42.87 44.05 44.84 45.79 46.89 48.70 50.76 57.82 60.92 60.15 59.55 59.90 59.84 59.96 59.28 58.69 58.49 57.95 57.19 56.53 56.59
39.20 40.61 41.39 40.68 40.69 42.09 43.84 45.72 47.60 50.45 54.85 59.84 59.87 59.79 59.48 58.93 59.15 58.38 58.26 57.67 56.96 56.01
36.43 38.02 37.24 36.98 37.69 38.91 39.87 40.84 42.03 44.20 47.14 51.06 55.02 60.11 59.23 59.19 58.97 58.23 57.96 58.09 57.23 56.61
34.16 35.10 33.63 33.10 34.32 36.95 36.46 37.46 38.66 41.09 43.28 45.40 48.11 51.97 55.98 58.65 58.49 58.00 57.64 57.80 57.37 56.82
31.50 31.13 30.17 30.82 31.98 33.98 34.22 34.41 36.24 37.63 39.28 41.09 43.40 45.76 49.06 52.71 55.76 58.47 58.14 57.90 57.59 57.27
29.43 27.43 27.13 28.75 29.68 31.03 31.65 32.13 33.90 35.27 36.25 38.35 39.83 41.89 45.41 46.55 46.79 49.25 54.27 58.30 58.01 57.74
25.09 24.52 24.96 25.76 27.26 28.35 28.80 30.15 31.71 32.79 34.46 36.20 37.98 40.27 40.15 40.32 41.25 42.96 45.39 49.35 55.44 58.01
21.78 22.02 22.60 23.38 24.37 24.90 26.01 27.19 28.26 29.92 32.10 33.79 36.06 36.93 37.47 38.40 38.80 39.38 40.69 42.85 47.52 52.43
19.98 19.66 20.43 21.27 21.53 22.07 22.53 24.27 25.12 27.07 29.85 31.58 33.97 35.69 36.22 36.30 36.97 37.25 38.75 40.81 42.99 45.85
18.04 17.94 19.00 19.47 19.65 20.36 21.78 22.41 23.65 25.74 27.87 29.29 32.41 34.89 36.07 35.96 36.74 36.93 38.22 39.72 41.18 42.55
16.74 16.94 17.64 17.87 18.88 20.34 21.21 23.02 24.44 26.07 26.91 28.46 30.64 33.61 35.46 35.84 36.02 35.51 36.15 37.73 39.39 40.46
16.41 16.35 16.63 17.91 18.74 20.21 22.00 22.84 23.81 24.18 26.34 27.48 29.31 32.04 33.25 33.45 33.41 33.78 33.69 34.94 36.12 36.67
14.83 15.66 17.99 18.03 19.36 20.06 20.67 21.23 21.61 22.46 23.79 25.20 26.28 27.52 30.72 30.54 30.80 31.05 31.89 33.27 33.93 35.33
MSLP
1017.66 1017.34 1017.01 1016.77 1016.07 1014.97 1014.41 1014.09 1013.87 1013.67 1013.59 1013.48 1013.50 1013.45 1013.58 1013.59 1013.45 1013.66 1013.59 1013.61 1013.84 1013.83
1018.39 1018.13 1017.96 1017.61 1017.24 1016.68 1015.87 1015.03 1014.21 1013.46 1013.03 1012.85 1012.80 1012.76 1012.72 1012.54 1012.52 1012.51 1012.58 1012.45 1012.36 1012.28
1019.14 1018.87 1018.54 1018.09 1018.14 1017.32 1016.87 1015.93 1015.03 1014.22 1013.40 1012.59 1012.27 1012.12 1012.07 1011.67 1011.58 1011.56 1011.42 1011.28 1011.35 1011.25
1019.95 1019.21 1019.06 1018.86 1018.41 1018.03 1017.36 1016.63 1015.92 1015.17 1014.16 1013.17 1012.39 1011.54 1011.21 1010.84 1010.60 1010.51 1010.33 1010.14 1010.06 1009.95
1020.84 1019.86 1019.35 1019.09 1018.68 1018.48 1017.86 1016.95 1016.39 1016.03 1014.85 1013.70 1012.81 1012.02 1011.33 1010.26 1009.81 1009.78 1009.29 1008.96 1008.88 1008.52
1021.29 1020.27 1020.05 1019.93 1018.82 1018.74 1018.37 1017.14 1016.90 1016.33 1015.45 1014.84 1013.67 1012.59 1011.59 1010.79 1009.58 1009.05 1008.11 1007.82 1007.67 1007.12
1021.61 1021.48 1021.21 1020.64 1020.06 1019.58 1018.29 1018.06 1017.23 1016.79 1015.44 1014.98 1014.21 1013.03 1011.86 1011.05 1010.52 1009.49 1007.90 1006.96 1006.33 1005.80
1023.00 1022.68 1022.18 1021.49 1020.91 1020.09 1019.35 1018.28 1017.87 1017.08 1014.98 1014.91 1014.23 1013.06 1012.62 1011.80 1010.65 1009.56 1008.29 1007.34 1006.40 1004.56
1023.49 1023.20 1022.57 1021.61 1020.95 1020.08 1019.36 1018.90 1017.94 1016.51 1015.16 1015.02 1014.02 1013.46 1012.71 1012.85 1011.03 1009.98 1008.83 1007.16 1006.14 1004.87
1024.11 1023.41 1022.84 1022.23 1021.62 1020.89 1019.92 1018.77 1017.79 1017.06 1016.36 1015.31 1014.16 1013.63 1012.89 1012.56 1011.28 1009.73 1008.68 1007.62 1005.97 1004.54
1024.23 1023.46 1022.71 1021.96 1021.18 1020.29 1019.59 1018.78 1017.92 1017.17 1016.51 1015.50 1014.41 1013.28 1012.38 1011.48 1010.28 1008.77 1007.81 1006.71 1005.69 1004.62
1024.35 1023.60 1022.91 1022.04 1021.14 1020.38 1019.62 1018.69 1017.84 1017.11 1016.03 1014.85 1013.78 1012.86 1012.01 1010.86 1009.74 1008.67 1007.63 1006.53 1005.43 1004.53
1024.67 1023.98 1022.97 1022.04 1021.16 1020.43 1019.47 1018.52 1017.73 1016.85 1016.00 1014.97 1013.69 1012.77 1012.33 1011.32 1009.70 1008.38 1007.27 1005.80 1004.53 1003.90
1024.77 1023.92 1022.88 1022.15 1021.41 1020.35 1019.33 1018.49 1017.57 1016.67 1015.95 1015.11 1014.37 1013.48 1012.65 1011.89 1010.79 1009.61 1007.61 1005.60 1003.92 1002.90
Wind_Speed
14 9 9 12 11 8 6 6 9 10 11 14 14 15 14 12 12 14 14 18 15 13
12 13 12 13 12 10 12 11 13 10 11 12 14 15 15 12 14 14 14 16 16 16
12 12 12 11 13 14 13 15 15 14 14 11 13 14 15 13 14 14 13 12 17 16
12 12 12 12 13 14 14 15 15 15 14 14 15 12 14 15 16 16 16 16 16 19
13 14 14 14 15 15 15 14 15 16 15 13 13 14 16 15 14 16 17 17 17 19
13 15 16 16 16 15 16 16 15 15 15 16 15 14 14 15 16 17 18 18 19 19
15 16 15 15 16 15 16 16 16 16 15 15 15 15 13 15 17 17 17 19 19 21
14 14 14 14 14 14 14 14 15 17 14 15 14 10 17 17 18 19 19 19 20 18
13 14 14 14 15 16 15 15 15 15 16 16 11 23 23 21 17 19 19 18 19 19
13 13 13 14 13 14 14 15 15 16 15 16 16 23 24 25 17 19 18 19 18 18
14 14 14 13 14 14 13 14 14 14 16 17 15 25 24 25 19 19 21 20 20 21
14 14 14 14 14 13 13 13 13 13 17 19 18 27 26 23 17 19 22 20 21 19
13 14 14 14 14 13 12 13 12 14 14 18 17 25 29 27 16 18 18 22 21 22
12 13 13 14 12 13 13 14 15 16 14 14 16 18 27 31 18 15 17 18 18 15
Wind_Direction
20 14 8 355 347 328 287 263 250 233 232 232 232 232 233 236 231 228 226 229 229 236
20 16 9 2 356 349 347 343 330 278 247 240 239 236 236 236 236 229 230 232 230 231
16 11 9 7 354 354 342 343 339 333 329 286 250 244 240 240 240 236 234 232 235 232
4 12 8 359 354 347 341 341 336 330 325 321 315 281 246 244 245 242 240 236 234 236
355 4 4 355 352 342 338 341 336 325 324 323 322 320 313 273 255 256 255 248 242 242
356 2 355 346 351 340 333 337 328 326 326 321 320 318 315 308 310 277 255 250 249 249
357 353 344 339 337 330 337 327 326 319 323 321 320 320 320 336 324 310 308 274 252 249
345 339 334 334 330 328 323 326 319 315 328 323 322 327 337 327 322 316 307 297 292 261
342 335 333 332 330 330 330 323 323 327 331 321 322 324 327 319 315 311 304 299 294 291
338 334 333 327 322 321 324 326 329 325 319 318 320 320 320 316 306 305 300 296 297 292
339 334 330 329 329 327 328 327 324 323 321 317 315 320 318 313 309 310 305 302 299 296
338 334 334 333 333 332 327 327 325 324 323 323 322 325 320 321 315 310 306 304 301 296
338 335 332 331 334 325 326 326 329 326 326 323 320 334 331 330 317 305 306 305 303 294
334 333 335 334 327 331 333 333 336 334 331 326 325 324 331 335 335 323 312 301 299 299